[[{"header":{"parameterUnit":"m.s-1","parameterCategory":1,"la1":30.2991,"la2":30.254,"lo1":-89.0895,"lo2":-89.0444,"dy":0.0017,"dx":0.0017,"nx":28,"ny":28,"refTime":"2023-09-08T21:00:00:Z","depth":0,"parameterNumber":2,"parameterNumberName":"U-component_of_WINDS"},"data":[0,0,0,0,0,0,0,0,0,0,0,0,0,0,0,0,0,0,0,0,0,0,0,0,0,0,0,0,0,0,0,0,0,0,0,0,0,0,0,0,0,0,0,0,0,0,0,0,0,0,0,0,0,0,0,0,0,0,-2.391,-2.391,0,-2.3853,-2.3852,-2.3851,-2.3735,-2.3733,-2.3731,-2.3729,-2.3671,-2.3672,-2.3673,0,0,0,0,0,0,0,0,0,0,0,0,0,-2.3921,-2.3922,-2.391,-2.391,-2.3909,-2.3853,-2.3852,-2.3851,-2.3736,-2.3733,-2.373,-2.3728,-2.3671,-2.3672,-2.3673,0,0,0,0,0,0,0,0,0,0,0,0,0,-2.3896,-2.3922,-2.391,-2.3844,-2.3838,-2.3853,-2.3852,-2.3851,-2.3736,-2.3733,-2.3729,-2.3726,-2.3671,-2.3672,-2.3673,-2.3748,0,0,-2.3676,-2.3676,0,0,0,0,0,0,0,0,-2.3897,-2.3895,-2.3855,-2.3849,-2.3842,-2.3798,-2.3835,-2.3817,-2.3737,-2.3775,-2.3729,-2.3725,-2.3716,-2.3713,-2.371,-2.3745,-2.3743,-2.3676,-2.3676,-2.3677,-2.3677,0,0,0,0,0,0,0,-2.3899,-2.3897,-2.3887,-2.3854,-2.3846,-2.3818,-2.3811,-2.3831,-2.3766,-2.3771,-2.3763,-2.3758,-2.3712,-2.371,-2.3708,-2.3742,-2.3676,-2.3677,-2.3677,-2.3678,-2.3833,-2.3836,0,0,0,0,0,0,-2.391,-2.3899,-2.3889,-2.3886,-2.3861,-2.3821,-2.3812,-2.3815,-2.3765,-2.3754,-2.3761,-2.3752,-2.371,-2.3707,-2.3706,-2.3787,-2.3677,-2.3678,-2.3678,-2.383,-2.3834,-2.3838,0,0,0,0,0,0,-2.3911,-2.3911,-2.3892,-2.389,-2.3886,-2.3824,-2.3829,-2.3816,-2.3813,-2.3757,-2.3745,-2.377,-2.3707,-2.3704,-2.3737,-2.3784,-2.3678,-2.3679,-2.3825,-2.3831,-2.3836,-2.3954,0,0,0,0,0,0,-2.3912,-2.3911,-2.3939,-2.3892,-2.3886,-2.3925,-2.3831,-2.3817,-2.3815,-2.3804,-2.3762,-2.3752,-2.3704,-2.3737,-2.3738,-2.3783,-2.368,-2.3821,-2.3828,-2.3834,-2.3946,-2.3963,-2.3978,0,0,0,0,0,-2.3913,-2.3976,-2.3941,-2.3941,-2.3919,-2.3928,-2.3924,-2.3867,-2.3819,-2.3846,-2.381,-2.3754,-2.378,-2.3741,-2.3742,-2.3788,-2.3818,-2.3826,-2.3834,-2.3939,-2.3959,-2.3977,0,0,0,0,0,0,-2.4031,-2.3968,-2.3929,-2.3979,-2.3959,-2.3908,-2.394,-2.3891,-2.3885,-2.3875,-2.3805,-2.3796,-2.3838,-2.3817,-2.3775,-2.3857,-2.3789,-2.3798,-2.3869,-2.3888,-2.3904,-2.3907,-2.368,0,0,0,0,0,-2.4063,-2.4074,-2.4019,-2.4068,-2.406,-2.4003,-2.4004,-2.3961,-2.3938,-2.393,-2.3896,-2.3876,-2.3879,-2.3883,-2.3883,-2.3943,-2.3931,-2.3975,-2.3991,-2.4004,-2.4012,-2.4039,-2.4057,-2.3864,-2.3864,-2.3864,0,0,-2.4129,-2.4096,-2.4107,-2.4091,-2.4071,-2.4084,-2.3996,-2.4015,-2.4023,-2.3933,-2.3961,-2.3936,-2.3909,-2.3955,-2.3974,-2.3939,-2.4063,-2.4015,-2.4026,-2.4026,-2.4049,-2.4068,-2.4084,-2.387,-2.3869,-2.3868,0,0,-2.4254,-2.4232,-2.4269,-2.425,-2.422,-2.4181,-2.4191,-2.4147,-2.4126,-2.4154,-2.4085,-2.4095,-2.4103,-2.4086,-2.4079,-2.4198,-2.4145,-2.4201,-2.4282,-2.431,-2.4325,-2.4338,-2.4378,-2.4394,-2.4209,-2.4209,-2.4209,0,-2.434,-2.4356,-2.4294,-2.4316,-2.431,-2.4228,-2.4265,-2.425,-2.4223,-2.4221,-2.4182,-2.4188,-2.4165,-2.4205,-2.4234,-2.4232,-2.4239,-2.4203,-2.4328,-2.4341,-2.4352,-2.4389,-2.4405,-2.4216,-2.4215,-2.4214,-2.4214,0,-2.4461,-2.4474,-2.4508,-2.4481,-2.448,-2.451,-2.4452,-2.4458,-2.4416,-2.4381,-2.4409,-2.4379,-2.437,-2.4377,-2.4337,-2.4411,-2.4389,-2.4341,-2.4271,-2.4378,-2.4411,-2.4426,-2.4225,-2.4223,-2.4221,-2.4219,0,0,-2.4658,-2.4597,-2.461,-2.4596,-2.4558,-2.4566,-2.4592,-2.4583,-2.4588,-2.4573,-2.4591,-2.46,-2.4554,-2.4546,-2.4503,-2.4528,-2.4621,-2.4475,-2.4473,-2.4501,-2.4698,-2.4732,-2.475,-2.4587,-2.4589,-2.4591,-2.4699,0,-2.4772,-2.4811,-2.4756,-2.4807,-2.4817,-2.474,-2.4762,-2.4741,-2.471,-2.4714,-2.468,-2.4685,-2.4626,-2.462,-2.4641,-2.4605,-2.4659,-2.4597,-2.4602,-2.4603,-2.4607,-2.4768,-2.4804,-2.4907,-2.4712,-2.4714,-2.4716,0,-2.4911,-2.49,-2.4952,-2.4909,-2.4911,-2.4932,-2.4918,-2.4923,-2.4898,-2.4873,-2.4864,-2.4813,-2.4834,-2.4769,-2.4797,-2.4756,-2.4755,-2.4738,-2.474,-2.4736,-2.4663,-2.4765,-2.4939,-2.4953,-2.4736,-2.4735,-2.4733,0,-2.5045,-2.5044,-2.5074,-2.5065,-2.5017,-2.5033,-2.5013,-2.4984,-2.4982,-2.4971,-2.4968,-2.496,-2.4955,-2.495,-2.4898,-2.4856,-2.4932,-2.4863,-2.491,-2.4912,-2.4927,-2.4926,-2.51,-2.4933,-2.4933,-2.4932,-2.4932,0,-2.5176,-2.521,-2.5133,-2.5152,-2.5187,-2.5125,-2.5162,-2.5135,-2.511,-2.5121,-2.5056,-2.5068,-2.5,-2.5005,-2.4965,-2.4992,-2.4992,-2.4971,-2.4959,-2.4975,-2.4977,-2.4971,-2.4961,-2.4936,-2.4935,-2.4935,-2.4934,0,-2.533,-2.5281,-2.5308,-2.526,-2.5248,-2.5277,-2.5235,-2.525,-2.5215,-2.523,-2.523,-2.5175,-2.5177,-2.5125,-2.5118,-2.5091,-2.5135,-2.5113,-2.5143,-2.5135,-2.5184,-2.5179,-2.5357,-2.5376,-2.5201,-2.5202,-2.5204,0,-2.5416,-2.544,-2.5394,-2.5396,-2.538,-2.5386,-2.5382,-2.5322,-2.5322,-2.5294,-2.5312,-2.5309,-2.5302,-2.531,-2.5269,-2.5262,-2.5237,-2.53,-2.5235,-2.525,-2.5234,-2.5231,-2.5232,-2.5313,-2.5315,-2.5317,-2.5318,0,-2.5571,-2.5545,-2.5543,-2.5532,-2.553,-2.5519,-2.5504,-2.551,-2.5444,-2.5447,-2.5448,-2.5443,-2.5435,-2.5432,-2.5418,-2.5397,-2.5346,-2.534,-2.5349,-2.5364,-2.5379,-2.5368,-2.5177,-2.5335,-2.5333,-2.5332,-2.5331,-2.533,-2.5691,-2.5708,-2.5678,-2.5677,-2.5659,-2.5646,-2.5657,-2.5623,-2.5623,-2.561,-2.5576,-2.5582,-2.5555,-2.5531,-2.5515,-2.5519,-2.5488,-2.5503,-2.5506,-2.551,-2.5518,-2.5382,-2.5517,-2.5516,-2.5516,-2.5516,-2.5515,0,-2.584,-2.5817,-2.5817,-2.5797,-2.5796,-2.575,-2.573,-2.5732,-2.5739,-2.5718,-2.5713,-2.5714,-2.5711,-2.567,-2.5662,-2.5673,-2.5649,-2.5672,-2.5669,-2.5665,-2.5548,-2.5539,-2.5691,-2.5691,-2.5691,-2.5691,-2.5691,-2.5691,-2.5917,-2.5942,-2.5913,-2.5929,-2.5905,-2.5911,-2.5903,-2.5891,-2.5873,-2.5877,-2.5873,-2.5847,-2.5818,-2.5807,-2.5802,-2.579,-2.5788,-2.5819,-2.5799,-2.569,-2.5673,-2.5657,-2.5647,-2.582,-2.582,-2.5914,-2.5915,-2.5916]},{"header":{"parameterUnit":"m.s-1","parameterCategory":1,"la1":30.2991,"la2":30.254,"lo1":-89.0895,"lo2":-89.0444,"dy":0.0017,"dx":0.0017,"nx":28,"ny":28,"refTime":"2023-09-08T21:00:00:Z","depth":0,"parameterNumber":3,"parameterNumberName":"V-component_of_WINDS"},"data":[0,0,0,0,0,0,0,0,0,0,0,0,0,0,0,0,0,0,0,0,0,0,0,0,0,0,0,0,0,0,0,0,0,0,0,0,0,0,0,0,0,0,0,0,0,0,0,0,0,0,0,0,0,0,0,0,0,0,-1.7617,-1.7619,0,-1.7791,-1.7793,-1.7795,-1.7872,-1.7872,-1.7871,-1.7871,-1.8047,-1.8052,-1.8056,0,0,0,0,0,0,0,0,0,0,0,0,0,-1.7348,-1.7353,-1.7617,-1.7619,-1.7621,-1.7791,-1.7793,-1.7796,-1.7872,-1.7872,-1.7871,-1.7871,-1.8045,-1.8051,-1.8057,0,0,0,0,0,0,0,0,0,0,0,0,0,-1.7488,-1.7354,-1.7617,-1.768,-1.7687,-1.779,-1.7793,-1.7796,-1.7872,-1.7872,-1.7871,-1.7871,-1.8043,-1.805,-1.8058,-1.811,0,0,-1.808,-1.8083,0,0,0,0,0,0,0,0,-1.748,-1.7498,-1.7669,-1.7676,-1.7684,-1.781,-1.7763,-1.7901,-1.7872,-1.7802,-1.7871,-1.7871,-1.7968,-1.7981,-1.8015,-1.8118,-1.8126,-1.8081,-1.8085,-1.8088,-1.809,0,0,0,0,0,0,0,-1.747,-1.7491,-1.7686,-1.7671,-1.7681,-1.7699,-1.7718,-1.779,-1.7885,-1.7808,-1.7814,-1.7834,-1.7972,-1.8008,-1.8019,-1.8128,-1.8081,-1.8087,-1.8092,-1.8094,-1.8284,-1.8284,0,0,0,0,0,0,-1.745,-1.7482,-1.768,-1.7691,-1.7579,-1.7704,-1.7726,-1.777,-1.7884,-1.7901,-1.7834,-1.7837,-1.7995,-1.8011,-1.8026,-1.8095,-1.8088,-1.8095,-1.8099,-1.8283,-1.8284,-1.8284,0,0,0,0,0,0,-1.7444,-1.7467,-1.7673,-1.7588,-1.7616,-1.7709,-1.7758,-1.7773,-1.7809,-1.7904,-1.7921,-1.7853,-1.7996,-1.8016,-1.8089,-1.8102,-1.8098,-1.8105,-1.8282,-1.8283,-1.8284,-1.8233,0,0,0,0,0,0,-1.7436,-1.7465,-1.7486,-1.7588,-1.762,-1.7734,-1.7759,-1.7777,-1.7822,-1.7827,-1.7926,-1.7942,-1.7997,-1.8077,-1.8096,-1.8112,-1.8111,-1.8281,-1.8283,-1.8284,-1.8234,-1.8232,-1.8231,0,0,0,0,0,-1.7426,-1.7464,-1.7487,-1.751,-1.7649,-1.7734,-1.7753,-1.7816,-1.7822,-1.7844,-1.7905,-1.7939,-1.8098,-1.8084,-1.8106,-1.8125,-1.8281,-1.8282,-1.8284,-1.8235,-1.8233,-1.8231,0,0,0,0,0,0,-1.736,-1.7479,-1.7505,-1.7577,-1.7645,-1.7747,-1.7777,-1.7811,-1.7878,-1.788,-1.7955,-1.7977,-1.8043,-1.8091,-1.8074,-1.8181,-1.8192,-1.8198,-1.8148,-1.8146,-1.8145,-1.8132,-1.8117,0,0,0,0,0,-1.7354,-1.7414,-1.7514,-1.7568,-1.7601,-1.7683,-1.7722,-1.7765,-1.7839,-1.7867,-1.7934,-1.8003,-1.8069,-1.811,-1.8176,-1.8241,-1.8264,-1.8265,-1.8263,-1.8261,-1.8265,-1.8304,-1.8306,-1.8289,-1.8289,-1.8289,0,0,-1.7342,-1.7414,-1.7448,-1.7557,-1.7615,-1.7675,-1.7707,-1.7769,-1.7814,-1.7877,-1.795,-1.8001,-1.8083,-1.8153,-1.8187,-1.8195,-1.8275,-1.8263,-1.8261,-1.8266,-1.8306,-1.8307,-1.8309,-1.829,-1.829,-1.829,0,0,-1.7351,-1.7411,-1.7463,-1.7521,-1.7608,-1.7662,-1.7674,-1.7772,-1.7808,-1.7883,-1.7932,-1.7986,-1.8097,-1.8154,-1.8197,-1.8227,-1.8261,-1.8246,-1.8238,-1.8275,-1.8276,-1.8277,-1.8288,-1.8291,-1.825,-1.825,-1.825,0,-1.7324,-1.7418,-1.7485,-1.7545,-1.7592,-1.7652,-1.7705,-1.7757,-1.7861,-1.7891,-1.7899,-1.804,-1.81,-1.8184,-1.8191,-1.8224,-1.824,-1.8236,-1.827,-1.8273,-1.8275,-1.8286,-1.829,-1.8248,-1.8248,-1.8248,-1.8249,0,-1.7381,-1.7445,-1.7476,-1.7576,-1.7626,-1.7682,-1.7757,-1.78,-1.7838,-1.7891,-1.7967,-1.804,-1.8122,-1.8145,-1.8182,-1.8234,-1.8236,-1.8256,-1.8269,-1.8273,-1.8285,-1.829,-1.8245,-1.8245,-1.8246,-1.8247,0,0,-1.7354,-1.749,-1.7501,-1.7547,-1.7648,-1.7698,-1.7756,-1.7837,-1.7872,-1.7941,-1.7992,-1.8085,-1.8104,-1.8153,-1.8198,-1.823,-1.8249,-1.8246,-1.8249,-1.8244,-1.8311,-1.8296,-1.83,-1.8272,-1.8273,-1.8274,-1.8304,0,-1.7376,-1.7485,-1.7547,-1.7629,-1.7689,-1.7747,-1.7798,-1.7865,-1.7916,-1.7973,-1.8029,-1.8094,-1.8115,-1.8145,-1.8179,-1.8239,-1.8264,-1.8238,-1.8319,-1.8322,-1.8297,-1.8306,-1.829,-1.8315,-1.8309,-1.831,-1.8311,0,-1.7418,-1.7487,-1.7575,-1.767,-1.7697,-1.7742,-1.7821,-1.7875,-1.7952,-1.7987,-1.8042,-1.8086,-1.815,-1.8157,-1.8245,-1.8226,-1.8263,-1.8298,-1.83,-1.831,-1.8316,-1.8316,-1.8325,-1.8328,-1.8319,-1.8318,-1.8317,0,-1.7389,-1.7504,-1.7572,-1.761,-1.7721,-1.7751,-1.7799,-1.7876,-1.792,-1.7989,-1.8019,-1.8093,-1.8134,-1.8191,-1.8254,-1.8254,-1.8336,-1.8349,-1.8367,-1.8365,-1.8382,-1.838,-1.8396,-1.8405,-1.8405,-1.8404,-1.8404,0,-1.7408,-1.746,-1.7561,-1.7602,-1.7662,-1.7733,-1.779,-1.7842,-1.791,-1.7962,-1.8016,-1.8064,-1.8145,-1.8203,-1.8253,-1.8318,-1.8336,-1.8366,-1.8379,-1.8361,-1.8358,-1.8387,-1.8387,-1.8406,-1.8405,-1.8405,-1.8405,0,-1.7386,-1.7456,-1.7534,-1.7633,-1.7659,-1.7699,-1.7784,-1.7826,-1.788,-1.7946,-1.7965,-1.8049,-1.812,-1.8189,-1.8284,-1.8318,-1.8383,-1.8399,-1.8357,-1.8364,-1.8378,-1.8376,-1.8414,-1.8423,-1.8425,-1.8424,-1.8424,0,-1.7394,-1.7435,-1.7539,-1.7579,-1.7626,-1.7688,-1.7735,-1.7805,-1.7851,-1.7942,-1.7973,-1.8048,-1.8112,-1.8222,-1.8292,-1.8365,-1.8384,-1.8392,-1.8395,-1.8376,-1.8384,-1.8381,-1.8386,-1.839,-1.839,-1.8389,-1.8389,0,-1.7401,-1.7433,-1.7498,-1.7575,-1.7628,-1.7692,-1.7757,-1.7786,-1.787,-1.7918,-1.7992,-1.8041,-1.8138,-1.8212,-1.8293,-1.8342,-1.8379,-1.8388,-1.8396,-1.8379,-1.8353,-1.8367,-1.8352,-1.8386,-1.8387,-1.8387,-1.8387,-1.8387,-1.7395,-1.7434,-1.7514,-1.7584,-1.7641,-1.7701,-1.7746,-1.7805,-1.7868,-1.7953,-1.7991,-1.8065,-1.8141,-1.8254,-1.8302,-1.836,-1.837,-1.8381,-1.8384,-1.8386,-1.8382,-1.8343,-1.8375,-1.8375,-1.8376,-1.8376,-1.8376,0,-1.7404,-1.7458,-1.7522,-1.7613,-1.7668,-1.7699,-1.7773,-1.7817,-1.7881,-1.7949,-1.8011,-1.8096,-1.8167,-1.8242,-1.8318,-1.8351,-1.837,-1.8368,-1.8367,-1.8378,-1.837,-1.8355,-1.8352,-1.8352,-1.8352,-1.8352,-1.8352,-1.8352,-1.7416,-1.7485,-1.7526,-1.7624,-1.7677,-1.7751,-1.7791,-1.7846,-1.7901,-1.7993,-1.8053,-1.8102,-1.8172,-1.8254,-1.8321,-1.8341,-1.8367,-1.836,-1.8385,-1.8377,-1.8378,-1.838,-1.8366,-1.8365,-1.8365,-1.8389,-1.8389,-1.8389]}]]